EDT,Max TemperatureF,Mean TemperatureF,Min TemperatureF,Max Dew PointF,MeanDew PointF,Min DewpointF,Max Humidity, Mean Humidity, Min Humidity, Max Sea Level PressureIn, Mean Sea Level PressureIn, Min Sea Level PressureIn, Max VisibilityMiles, Mean VisibilityMiles, Min VisibilityMiles, Max Wind SpeedMPH, Mean Wind SpeedMPH, Max Gust SpeedMPH,PrecipitationIn, CloudCover, Events, WindDirDegrees
2012-8-1,89,78,68,72,69,66,100,75,51,29.95,29.92,29.88,10.0,10.0,10.0,9,4,,0.00,2,Rain,283
2012-8-2,89,76,62,68,64,61,100,65,38,29.98,29.93,29.89,10.0,9.9,7.0,7,2,,0.00,0,,141
2012-8-3,78,73,68,73,69,64,100,86,69,30.01,29.97,29.90,10.0,9.7,3.0,10,3,,0.00,4,Rain,170
2012-8-4,86,78,71,75,72,70,100,83,66,30.10,30.04,29.99,10.0,10.0,10.0,14,7,21,0.00,3,,214
2012-8-5,80,76,73,73,72,70,94,88,78,30.16,30.12,30.08,10.0,10.0,10.0,15,8,23,0.00,6,Rain,237
2012-8-6,86,78,69,72,68,63,100,77,51,30.18,30.12,30.06,10.0,9.9,5.0,9,3,,0.00,4,,70
2012-8-7,87,76,66,70,66,61,100,71,46,30.07,30.04,29.99,10.0,10.0,10.0,6,1,,0.00,2,,114
2012-8-8,89,76,64,72,67,63,100,73,40,30.06,30.02,29.96,10.0,9.7,7.0,8,3,,0.00,0,,250
2012-8-9,87,78,68,70,67,63,100,79,55,29.99,29.92,29.82,10.0,10.0,10.0,17,4,33,0.00,1,,213
2012-8-10,78,70,60,70,63,59,100,79,54,29.92,29.83,29.75,10.0,9.9,4.0,14,7,22,0.00,3,Rain,291
2012-8-11,75,64,53,61,56,54,100,78,53,30.04,29.99,29.92,10.0,10.0,10.0,7,4,,0.00,3,,299
2012-8-12,80,66,51,63,56,52,100,72,39,30.10,30.06,30.03,10.0,10.0,10.0,7,3,,0.00,0,,242
2012-8-13,78,68,57,64,60,55,100,73,44,30.08,30.02,29.95,10.0,10.0,10.0,10,3,,0.00,3,Rain,219
2012-8-14,80,72,64,68,64,61,100,81,57,29.98,29.94,29.90,10.0,10.0,10.0,7,4,,0.00,6,,259
2012-8-15,82,71,60,64,62,55,100,77,42,30.05,30.01,29.95,10.0,10.0,10.0,8,1,,0.00,3,,27
2012-8-16,86,72,57,64,61,55,100,70,40,30.10,30.03,29.91,10.0,10.0,10.0,10,4,,0.00,0,,239
2012-8-17,78,69,60,66,63,57,100,81,51,30.00,29.97,29.91,10.0,10.0,10.0,12,5,16,0.00,5,,273
2012-8-18,80,68,55,59,55,50,100,65,36,30.03,29.98,29.91,10.0,10.0,10.0,7,2,,0.00,3,,58
2012-8-19,82,70,59,64,58,54,100,73,39,29.95,29.91,29.88,10.0,9.9,7.0,8,1,,0.00,5,Rain,40
2012-8-20,80,66,51,61,53,48,100,68,34,30.03,29.98,29.93,10.0,10.0,10.0,10,1,,0.00,2,,13
2012-8-21,80,66,51,59,55,50,100,76,34,30.13,30.08,30.03,10.0,10.0,10.0,10,2,20,0.00,5,Rain,254
2012-8-22,84,67,50,59,54,48,100,68,30,30.19,30.14,30.10,10.0,10.0,10.0,7,2,,0.00,0,,355
2012-8-23,86,70,53,61,56,52,100,68,33,30.19,30.15,30.10,10.0,9.7,7.0,8,3,,0.00,1,,142
2012-8-24,89,73,57,63,59,55,100,60,33,30.18,30.12,30.07,10.0,7.3,4.0,8,3,,0.00,2,,158
2012-8-25,89,74,59,64,59,52,100,64,27,30.18,30.13,30.09,10.0,9.4,4.0,7,3,,0.00,0,,176
2012-8-26,89,74,59,66,62,59,100,69,36,30.21,30.14,30.08,10.0,6.4,0.8,6,1,,0.00,1,,237
2012-8-27,89,76,62,72,65,61,100,73,38,30.15,30.08,30.00,10.0,7.6,0.8,12,5,20,0.00,4,Rain,239
2012-8-28,86,75,64,72,68,61,100,81,43,30.10,30.05,30.01,10.0,6.4,0.5,10,1,,0.00,6,Fog-Rain,65
2012-8-29,84,72,60,61,59,55,94,64,37,30.10,30.06,30.02,10.0,10.0,10.0,10,5,17,0.00,0,,60
2012-8-30,89,73,57,68,58,54,88,60,36,30.15,30.10,30.06,10.0,8.5,0.8,9,4,,0.00,0,,116
2012-8-31,87,78,69,72,70,68,100,77,55,30.25,30.18,30.14,10.0,8.9,3.0,10,5,18,0.00,0,,240